THAICOM 8 (41552 NORAD) Tracking and Keplerian Element Data

This shows tracking and keplerian element data for the satellite.

Feedback or suggestion? Click here.




ElementValue
Catalog41552
NameTHAICOM 8
Epoch Orbit772
Epoch Day197.96336194
Epoch Year2018
RAAN39.5252
Inclination0.0546
Eccentricity0.0003858
Argument of Perigee26.7588
Mean Anonmoly293.7385
Mean Motion1.00272078
Decay Rate-1.41E-06
L11 41552U 16031A 18197.96336194 -.00000141 00000-0 00000-0 0 9992
L22 41552 0.0546 39.5252 0003858 26.7588 293.7385 1.00272078 7720

Live tracking and technical data element details for THAICOM 8 (NORAD 41552). THAICOM 8 can be tracked NOW for your location showing map with azimuth and elevation plus other details from your city location.

Track the satellite on the map from your city or location and see movement details for azimuth, elevation, latitude, longitude, range, height, and movement on the map or in text.







IsCatalogInMostPopularTable: catalog: 41552, numindb: 51
Update: records affected: 1



GetName: 41552 THAICOM 8

Hit Count: updated at: Wed, 18 Jul 2018 20:31:03 GMT